Retour au catalogue

COSMOS 1275 DEB

ActifPO
NORAD 14441·DEBRIS·🇷🇺 Russia

Lancé Jun 4, 1981 depuis Plesetsk Cosmodrome

Loading…

Prochains Passages (prochaines 24 heures)

TLE

FraisSource: Space-Track

Époque: Sep 14, 2026, 14:32 UTC

1 14441U 81053JH  26257.60605906  .00001809  00000-0  95626-3 0  9994
2 14441  83.1133 204.9830 0046360  58.5558 302.0139 14.12739115285698

Suivez COSMOS 1275 DEB en temps réel avec AllMySat

Download on the App Store